• Processing (Info)

  • MPEC 2019-V17 : 2019 VD

    The following Minor Planet Electronic Circular may be linked-to from your own Web pages, but must not otherwise be redistributed electronically.

    A form allowing access to any MPEC is at the bottom of this page.


    Read MPEC 2019-V16 Read MPEC 2019-V18


    M.P.E.C. 2019-V17                              Issued 2019 November 2, 14:24 UT
    
         The Minor Planet Electronic Circulars contain information on unusual
             minor planets and routine data on comets.  They are published
        on behalf of Division F of the International Astronomical Union by the
              Minor Planet Center, Smithsonian Astrophysical Observatory,
                              Cambridge, MA 02138, U.S.A.
    
                 Prepared using the Tamkin Foundation Computer Network
    
                                  MPC@CFA.HARVARD.EDU
                URL https://www.minorplanetcenter.net/    ISSN 1523-6714
    
                                     2019 VD                                 
    
    
    Observations:
         K19V00D  C2019 10 28.36059500 25 29.036+03 36 52.88         22.3 GVEV017F52
         K19V00D  C2019 10 28.37166100 25 27.646+03 36 55.37         21.9 GVEV017F52
         K19V00D  C2019 10 28.38270200 25 26.196+03 36 57.42         21.6 GVEV017F52
         K19V00D  C2019 10 28.39378300 25 24.778+03 36 59.65         22.8 GVEV017F52
         K19V00D* C2019 11 01.35960600 18 02.141+04 16 00.64         20.14wUEV017F52
         K19V00D  C2019 11 01.37138200 17 57.285+04 16 17.50         20.26wUEV017F52
         K19V00D  C2019 11 01.38311200 17 52.593+04 16 33.70         20.10wUEV017F52
         K19V00D  C2019 11 01.39484600 17 47.786+04 16 50.40         20.47wUEV017F52
         K19V00D  C2019 11 02.13317 00 14 13.30 +04 39 14.7          18.8 GVEV017I52
         K19V00D  C2019 11 02.13393 00 14 12.83 +04 39 16.1          18.7 GVEV017I52
         K19V00D  C2019 11 02.13470 00 14 12.43 +04 39 18.2          19.3 GVEV017I52
         K19V00D  C2019 11 02.16318100 13 52.79 +04 40 21.7          19.4 GVEV017H01
         K19V00D  C2019 11 02.17197000 13 47.23 +04 40 45.3          18.9 GVEV017H01
         K19V00D  C2019 11 02.17914100 13 42.65 +04 41 04.5          19.1 GVEV017H01
         K19V00D KC2019 11 02.17929 00 13 36.42 +04 40 24.1          19.6 RqEV017H36
         K19V00D KC2019 11 02.19219 00 13 28.17 +04 40 58.0          19.7 RqEV017H36
         K19V00D  C2019 11 02.19250700 13 34.03 +04 41 40.5          20.4 GVEV017H01
         K19V00D KC2019 11 02.20457 00 13 20.32 +04 41 30.7          19.9 RqEV017H36
         K19V00D KC2019 11 02.21654 00 13 12.69 +04 42 02.3          19.4 RqEV017H36
         K19V00D KC2019 11 02.25750 00 12 46.37 +04 43 50.9          19.4 GVEV017734
         K19V00D KC2019 11 02.25958 00 12 45.03 +04 43 54.2          19.8 GVEV017734
         K19V00D KC2019 11 02.26170 00 12 43.71 +04 44 01.8          19.8 GVEV017734
         K19V00D KC2019 11 02.26373 00 12 42.39 +04 44 08.0          19.4 GVEV017734
         K19V00D KC2019 11 02.26580 00 12 41.12 +04 44 13.2          20.0 GVEV017734
         K19V00D KC2019 11 02.26839 00 12 52.13 +04 44 37.6          19.0 RtEV017G58
         K19V00D KC2019 11 02.27098 00 12 50.36 +04 44 45.1          18.9 RtEV017G58
         K19V00D KC2019 11 02.27474 00 12 47.82 +04 44 55.8          19.1 RtEV017G58
         K19V00D KC2019 11 02.27909 00 12 44.86 +04 45 07.5          19.3 RtEV017G58
         K19V00D KC2019 11 02.28224 00 12 42.74 +04 45 16.7          19.2 RtEV017G58
    
    Observer details:
    734 Farpoint Observatory, Eskridge.  Observers G. Hug, D. Cromer, D. Goodin.  
        Measurer D. Cromer.  0.69-m reflector + CCD.
    F52 Pan-STARRS 2, Haleakala.  Observers J. Bulger, K. Chambers, T. Dukes, T. 
       Lowe, E. Magnier, A. Schultz, M. Willman.  Measurers S. Chastel, M. Huber, 
       Y. Ramanjooloo, R. Wainscoat, R. Weryk, K. Chambers, T. de Boer, L. Denneau, 
       J. Fairlamb, H. Flewelling, C.-C. Lin, E. Magnier.  1.8-m Ritchey-Chretien + 
       CCD.
    G58 Chabot Space and Science Center, Oakland.  Observer G. McKeegan.  0.9-m 
       f/4.5 Cassegrain + CCD.
    H01 Magdalena Ridge Observatory, Socorro.  Observers W. H. Ryan, E. V. Ryan.  
        Measurer W. H. Ryan.  2.4-m f/8.9 Ritchey-Chretien + CCD.
    H36 Sandlot Observatory, Scranton.  Observer G. Hug.  0.56-m reflector + CCD.
    I52 Steward Observatory, Mt. Lemmon Station.  Observers R. A. Kowalski, K. W. 
       Wierzchos.  Measurers E. J. Christensen, G. A. Farneth, D. C. Fuls, A. R. 
       Gibbs, A. D. Grauer, H. Groeller, R. A. Kowalski, S. M. Larson, G. J. 
       Leonard, T. A. Pruyne, D. Rankin, R. L. Seaman, F. C. Shelly, K. W. 
       Wierzchos.  1.0-m reflector + CCD.
    
    Orbital elements:
    2019 VD                                                  Earth MOID = 0.0009 AU
    Epoch 2019 Apr. 27.0 TT = JDT 2458600.5                 Veres
    M 306.23852              (2000.0)            P               Q
    n   0.24358823     Peri.   70.74360     +0.13790042     -0.99044604
    a   2.5392094      Node    11.33005     +0.90808574     +0.12630055
    e   0.6465912      Incl.    0.09607     +0.39542857     +0.05536068
    P   4.05           H   27.4           G   0.15           U   7
    Residuals in seconds of arc
    191028 F52  0.1+  0.2-    191102 I52  0.3+  0.1+    191102 734  0.8-  2.4-
    191028 F52  0.4+  0.1+    191102 H01  0.1-  0.0     191102 734  0.2-  0.5-
    191028 F52  0.2-  0.1-    191102 H01  0.1-  0.1+    191102 734  0.4-  0.2+
    191028 F52  0.4-  0.0     191102 H01  0.1-  0.0     191102 734  0.5+  0.2-
    191101 F52  0.3+  0.0     191102 H36  0.6+  0.2+    191102 G58  0.2+  0.2+
    191101 F52  0.7-  0.2+    191102 H36  0.4-  0.2+    191102 G58  0.0   0.4+
    191101 F52  0.6+  0.1-    191102 H01  0.0   0.0     191102 G58  0.2+  0.5+
    191101 F52  0.0   0.1+    191102 H36  0.3+  0.3+    191102 G58  0.1+  0.1-
    191102 I52  0.4-  0.6+    191102 H36  1.0+  0.2+    191102 G58  0.5+  0.1+
    191102 I52  0.6-  0.0     191102 734  0.8-  0.1-
    
    Ephemeris:
    2019 VD                  a,e,i = 2.54, 0.65, 0                   q = 0.8974
    Date    TT    R. A. (2000) Decl.     Delta      r    Elong.  Phase     V
    2019 10 03    00 36 08.6 +03 52 47   0.2387  1.2396   179.4     0.5    24.9
    ...
    2019 10 18    00 31 14.5 +03 33 58   0.1214  1.1140   164.5    13.8    23.8
    ...
    2019 10 26    00 27 18.6 +03 32 25   0.06463 1.0536   155.7    22.9    22.7
    ...
    2019 11 01    00 19 24.0 +04 10 04   0.02337 1.0126   148.1    31.2    20.6
    2019 11 02    00 14 53.3 +04 38 00   0.01655 1.0063   146.2    33.3    19.9
    2019 11 03    00 04 13.5 +05 45 33   0.0097461.0000   143.0    36.7    18.8
    ...
    2019 11 09    12 31 16.6 -02 54 18   0.03140 0.9660    37.7   141.2    26.8
    ...
    2019 11 17    12 28 35.6 -03 41 58   0.08652 0.9309    46.0   130.1    27.7
    ...
    2019 12 02    12 37 30.2 -04 57 34   0.1907  0.9017    58.7   110.9    27.8
    
    A. U. Tomatic                (C) Copyright 2019 MPC           M.P.E.C. 2019-V17
    


    Read MPEC 2019-V16 Read MPEC 2019-V18


    MPEC number:

    Enter an MPEC number in one of the following forms:

    • 1997-B01 (the full form)
    • J97B01 (the packed version of the full form)
    • B01 (the abbreviated form)